| time (UTC) | temp C | wind direction | speed KPH | gust KPH | rain 1hr cm | rain 24hr cm | rain mn cm | humidity % | barometer mb |
| 20260504100430 | 2 | 164 | 0.0 | 0.0 | 0.00 | 0.00 | 0.00 | 94 | 1017.2 |
| 20260504081818 | 3 | 169 | 0.0 | 0.0 | 0.00 | 0.00 | 0.00 | 90 | 1017.3 |
| 20260504081315 | 3 | 169 | 0.0 | 0.0 | 0.00 | 0.00 | 0.00 | 90 | 1017.4 |
| 20260504080810 | 3 | 169 | 0.0 | 0.0 | 0.00 | 0.00 | 0.00 | 90 | 1017.4 |
| 20260504080308 | 3 | 168 | 0.0 | 0.0 | 0.00 | 0.00 | 0.00 | 89 | 1017.6 |
| 20260504070228 | 5 | 169 | 0.0 | 0.0 | 0.00 | 0.00 | 0.00 | 86 | 1017.7 |
| 20260504060149 | 4 | 168 | 0.0 | 0.0 | 0.00 | 0.00 | 0.00 | 85 | 1018.4 |
| 20260504050617 | 5 | 168 | 0.0 | 0.0 | 0.00 | 0.00 | 0.00 | 81 | 1018.5 |
| 20260504050114 | 5 | 168 | 0.0 | 0.0 | 0.00 | 0.00 | 0.00 | 81 | 1018.4 |
| 20260504045611 | 5 | 168 | 0.0 | 0.0 | 0.00 | 0.00 | 0.00 | 81 | 1018.1 |
| 20260504045106 | 5 | 168 | 0.0 | 0.0 | 0.00 | 0.00 | 0.00 | 80 | 1018.3 |
| 20260504044604 | 6 | 168 | 0.0 | 0.0 | 0.00 | 0.00 | 0.00 | 81 | 1018.1 |
| 20260504044100 | 6 | 168 | 0.0 | 0.0 | 0.00 | 0.00 | 0.00 | 81 | 1018.2 |
| 20260504043558 | 6 | 168 | 0.0 | 0.0 | 0.00 | 0.00 | 0.00 | 81 | 1018.0 |
| 20260504043055 | 6 | 168 | 0.0 | 0.0 | 0.00 | 0.00 | 0.00 | 81 | 1018.1 |
| 20260504042552 | 6 | 168 | 0.0 | 0.0 | 0.00 | 0.00 | 0.00 | 80 | 1018.0 |
| 20260504042049 | 6 | 168 | 0.0 | 0.0 | 0.00 | 0.00 | 0.00 | 81 | 1018.1 |
| 20260504041544 | 6 | 168 | 0.0 | 0.0 | 0.00 | 0.00 | 0.00 | 78 | 1018.1 |
| 20260504041041 | 5 | 168 | 0.0 | 0.0 | 0.00 | 0.00 | 0.00 | 79 | 1018.3 |
| 20260504040538 | 5 | 168 | 0.0 | 0.0 | 0.00 | 0.00 | 0.00 | 79 | 1018.3 |
| 20260504040035 | 5 | 168 | 0.0 | 0.0 | 0.00 | 0.00 | 0.00 | 79 | 1018.3 |
| 20260504035532 | 5 | 168 | 0.0 | 0.0 | 0.00 | 0.00 | 0.00 | 78 | 1018.2 |
| 20260504035028 | 6 | 168 | 0.0 | 0.0 | 0.00 | 0.00 | 0.00 | 78 | 1018.1 |
| 20260504034526 | 6 | 168 | 0.0 | 0.0 | 0.00 | 0.00 | 0.00 | 77 | 1018.3 |
| 20260504034023 | 6 | 168 | 0.0 | 0.0 | 0.00 | 0.00 | 0.00 | 77 | 1018.2 |
| 20260504033521 | 6 | 168 | 0.0 | 0.0 | 0.00 | 0.00 | 0.00 | 77 | 1018.2 |
| 20260504033018 | 6 | 168 | 0.0 | 0.0 | 0.00 | 0.00 | 0.00 | 77 | 1018.2 |
| 20260504032515 | 6 | 168 | 0.0 | 0.0 | 0.00 | 0.00 | 0.00 | 76 | 1018.2 |
| 20260504032011 | 6 | 168 | 0.0 | 0.0 | 0.00 | 0.00 | 0.00 | 76 | 1017.9 |
| 20260504031508 | 6 | 168 | 0.0 | 0.0 | 0.00 | 0.00 | 0.00 | 77 | 1018.1 |
| 20260504031005 | 6 | 168 | 0.0 | 0.0 | 0.00 | 0.00 | 0.00 | 78 | 1018.0 |
| 20260504030502 | 6 | 168 | 0.0 | 0.0 | 0.00 | 0.00 | 0.00 | 77 | 1017.7 |
| 20260504025958 | 6 | 168 | 0.0 | 0.0 | 0.00 | 0.00 | 0.00 | 78 | 1017.6 |
| 20260504025455 | 6 | 168 | 0.0 | 0.0 | 0.00 | 0.00 | 0.00 | 78 | 1017.7 |
| 20260504024952 | 6 | 168 | 0.0 | 0.0 | 0.00 | 0.00 | 0.00 | 79 | 1017.7 |
| 20260504024449 | 6 | 168 | 0.0 | 0.0 | 0.00 | 0.00 | 0.00 | 77 | 1018.1 |
| 20260504023946 | 6 | 168 | 0.0 | 0.0 | 0.00 | 0.00 | 0.00 | 76 | 1017.7 |
| 20260504023442 | 6 | 168 | 0.0 | 0.0 | 0.00 | 0.00 | 0.00 | 74 | 1018.0 |
| 20260504022938 | 6 | 168 | 0.0 | 0.0 | 0.00 | 0.00 | 0.00 | 74 | 1018.1 |
| 20260504022434 | 5 | 168 | 0.0 | 0.0 | 0.00 | 0.00 | 0.00 | 76 | 1018.1 |
| 20260504021931 | 6 | 168 | 0.0 | 0.0 | 0.00 | 0.00 | 0.00 | 77 | 1018.0 |
| 20260504021429 | 5 | 168 | 0.0 | 0.0 | 0.00 | 0.00 | 0.00 | 77 | 1018.0 |
| 20260504020926 | 5 | 168 | 0.0 | 0.0 | 0.00 | 0.00 | 0.00 | 76 | 1018.1 |
| 20260504020422 | 5 | 168 | 0.0 | 0.0 | 0.00 | 0.00 | 0.00 | 76 | 1017.9 |
| 20260504015919 | 5 | 168 | 0.0 | 0.0 | 0.00 | 0.00 | 0.00 | 75 | 1017.9 |
| 20260504015415 | 5 | 168 | 0.0 | 0.0 | 0.00 | 0.00 | 0.00 | 75 | 1017.7 |
| 20260504014911 | 5 | 168 | 0.0 | 0.0 | 0.00 | 0.00 | 0.00 | 74 | 1017.6 |
| 20260504014407 | 6 | 168 | 0.0 | 0.0 | 0.00 | 0.00 | 0.00 | 73 | 1017.7 |
| 20260504013904 | 6 | 168 | 0.0 | 0.0 | 0.00 | 0.00 | 0.00 | 73 | 1017.9 |
| 20260504013402 | 6 | 168 | 0.0 | 0.0 | 0.00 | 0.00 | 0.00 | 71 | 1017.7 |
| 20260504012858 | 6 | 168 | 0.0 | 0.0 | 0.00 | 0.00 | 0.00 | 70 | 1017.9 |
| 20260504012356 | 6 | 168 | 0.0 | 0.0 | 0.00 | 0.00 | 0.00 | 68 | 1017.6 |
| 20260504011854 | 7 | 168 | 0.0 | 0.0 | 0.00 | 0.00 | 0.00 | 68 | 1017.5 |
| 20260504011350 | 7 | 168 | 0.0 | 0.0 | 0.00 | 0.00 | 0.00 | 67 | 1017.6 |
| 20260504010846 | 7 | 168 | 0.0 | 0.0 | 0.00 | 0.00 | 0.00 | 69 | 1017.5 |
| 20260504010342 | 7 | 168 | 0.0 | 0.0 | 0.00 | 0.00 | 0.00 | 64 | 1017.7 |
| 20260504005839 | 7 | 168 | 0.0 | 0.0 | 0.00 | 0.00 | 0.00 | 65 | 1017.3 |
| 20260504005335 | 8 | 168 | 0.0 | 0.0 | 0.00 | 0.00 | 0.00 | 66 | 1017.4 |
| 20260504004833 | 8 | 168 | 0.0 | 0.0 | 0.00 | 0.00 | 0.00 | 64 | 1017.3 |
| 20260504004331 | 8 | 168 | 0.0 | 0.0 | 0.00 | 0.00 | 0.00 | 57 | 1017.2 |
| 20260504003827 | 8 | 168 | 0.0 | 0.0 | 0.00 | 0.00 | 0.00 | 59 | 1017.1 |
| 20260504003324 | 9 | 168 | 0.0 | 0.0 | 0.00 | 0.00 | 0.00 | 57 | 1017.2 |
| 20260504002821 | 10 | 168 | 0.0 | 0.0 | 0.00 | 0.00 | 0.00 | 51 | 1017.2 |
| 20260504002317 | 10 | 168 | 0.0 | 0.0 | 0.00 | 0.00 | 0.00 | 48 | 1017.1 |
| 20260504001815 | 11 | 168 | 0.0 | 0.0 | 0.00 | 0.00 | 0.00 | 51 | 1017.2 |
| 20260504001312 | 11 | 168 | 0.0 | 0.0 | 0.00 | 0.00 | 0.00 | 48 | 1017.1 |
| 20260504000809 | 12 | 168 | 0.0 | 0.0 | 0.00 | 0.00 | 0.00 | 41 | 1017.1 |
| 20260504000306 | 12 | 302 | 0.0 | 0.0 | 0.00 | 0.00 | 0.00 | 37 | 1017.1 |
| 20260503235804 | 13 | 309 | 1.6 | 3.2 | 0.00 | 0.00 | 0.00 | 39 | 1017.3 |
| 20260503235304 | 13 | 206 | 1.6 | 1.6 | 0.00 | 0.00 | 0.00 | 38 | 1017.0 |
| 20260503234759 | 13 | 272 | 0.0 | 4.8 | 0.00 | 0.00 | 0.00 | 37 | 1017.2 |
| 20260503234256 | 13 | 282 | 0.0 | 4.8 | 0.00 | 0.00 | 0.00 | 39 | 1017.2 |
| 20260503233753 | 13 | 314 | 6.4 | 9.7 | 0.00 | 0.00 | 0.00 | 36 | 1017.2 |
| 20260503233249 | 13 | 303 | 3.2 | 6.4 | 0.00 | 0.00 | 0.00 | 35 | 1017.3 |
| 20260503232746 | 13 | 347 | 8.0 | 11.3 | 0.00 | 0.00 | 0.00 | 34 | 1017.1 |
| 20260503232243 | 13 | 321 | 3.2 | 6.4 | 0.00 | 0.00 | 0.00 | 38 | 1017.3 |
| 20260503231741 | 13 | 302 | 6.4 | 9.7 | 0.00 | 0.00 | 0.00 | 34 | 1017.3 |
| 20260503231238 | 13 | 307 | 8.0 | 11.3 | 0.00 | 0.00 | 0.00 | 38 | 1017.6 |
| 20260503230734 | 14 | 303 | 9.7 | 11.3 | 0.00 | 0.00 | 0.00 | 34 | 1017.5 |
| 20260503230232 | 13 | 247 | 3.2 | 11.3 | 0.00 | 0.00 | 0.00 | 36 | 1017.4 |
| 20260503225729 | 14 | 256 | 3.2 | 12.9 | 0.00 | 0.00 | 0.00 | 35 | 1017.4 |
| 20260503225229 | 14 | 267 | 4.8 | 11.3 | 0.00 | 0.00 | 0.00 | 36 | 1017.5 |
| 20260503224726 | 14 | 276 | 3.2 | 12.9 | 0.00 | 0.00 | 0.00 | 37 | 1017.7 |
| 20260503224224 | 14 | 256 | 4.8 | 11.3 | 0.00 | 0.00 | 0.00 | 34 | 1017.6 |
| 20260503223721 | 15 | 194 | 6.4 | 11.3 | 0.00 | 0.00 | 0.00 | 35 | 1017.9 |
| 20260503223219 | 14 | 292 | 11.3 | 11.3 | 0.00 | 0.00 | 0.00 | 35 | 1017.9 |
| 20260503222715 | 14 | 276 | 6.4 | 11.3 | 0.00 | 0.00 | 0.00 | 37 | 1017.7 |
| 20260503222213 | 14 | 255 | 9.7 | 11.3 | 0.00 | 0.00 | 0.00 | 37 | 1017.6 |
| 20260503221711 | 14 | 277 | 8.0 | 12.9 | 0.00 | 0.00 | 0.00 | 36 | 1017.9 |
| 20260503221208 | 15 | 270 | 3.2 | 9.7 | 0.00 | 0.00 | 0.00 | 34 | 1017.5 |
| 20260503220705 | 15 | 276 | 6.4 | 9.7 | 0.00 | 0.00 | 0.00 | 36 | 1017.5 |
| 20260503220201 | 14 | 246 | 9.7 | 11.3 | 0.00 | 0.00 | 0.00 | 35 | 1017.5 |
| 20260503215658 | 15 | 261 | 6.4 | 16.1 | 0.00 | 0.00 | 0.00 | 36 | 1017.5 |
| 20260503215155 | 15 | 235 | 6.4 | 11.3 | 0.00 | 0.00 | 0.00 | 39 | 1017.5 |
| 20260503214654 | 15 | 222 | 4.8 | 9.7 | 0.00 | 0.00 | 0.00 | 38 | 1017.4 |
| 20260503214149 | 15 | 209 | 1.6 | 11.3 | 0.00 | 0.00 | 0.00 | 37 | 1017.3 |
| 20260503213643 | 15 | 200 | 6.4 | 16.1 | 0.00 | 0.00 | 0.00 | 35 | 1017.5 |
| 20260503213139 | 14 | 300 | 3.2 | 11.3 | 0.00 | 0.00 | 0.00 | 35 | 1017.6 |
| 20260503212637 | 14 | 336 | 14.5 | 16.1 | 0.00 | 0.00 | 0.00 | 34 | 1017.9 |
| 20260503212134 | 15 | 251 | 3.2 | 4.8 | 0.00 | 0.00 | 0.00 | 36 | 1017.7 |
| 20260503211632 | 15 | 254 | 6.4 | 11.3 | 0.00 | 0.00 | 0.00 | 35 | 1017.4 |
| 20260503211127 | 15 | 207 | 11.3 | 12.9 | 0.00 | 0.00 | 0.00 | 32 | 1017.6 |
| 20260503210623 | 15 | 247 | 3.2 | 11.3 | 0.00 | 0.00 | 0.00 | 31 | 1017.7 |
| 20260503210120 | 15 | 323 | 4.8 | 6.4 | 0.00 | 0.00 | 0.00 | 35 | 1017.7 |
| 20260503205616 | 14 | 297 | 4.8 | 12.9 | 0.00 | 0.00 | 0.00 | 33 | 1018.0 |
| 20260503205112 | 14 | 305 | 12.9 | 14.5 | 0.00 | 0.00 | 0.00 | 35 | 1017.9 |
| 20260503204609 | 15 | 290 | 8.0 | 12.9 | 0.00 | 0.00 | 0.00 | 31 | 1018.1 |
| 20260503204107 | 14 | 9 | 1.6 | 6.4 | 0.00 | 0.00 | 0.00 | 31 | 1018.0 |
| 20260503203604 | 15 | 125 | 0.0 | 11.3 | 0.00 | 0.00 | 0.00 | 37 | 1018.0 |
| 20260503203101 | 14 | 326 | 1.6 | 4.8 | 0.00 | 0.00 | 0.00 | 39 | 1018.2 |
| 20260503202558 | 14 | 128 | 3.2 | 4.8 | 0.00 | 0.00 | 0.00 | 33 | 1018.2 |
| 20260503202056 | 14 | 285 | 4.8 | 11.3 | 0.00 | 0.00 | 0.00 | 35 | 1018.1 |
| 20260503201554 | 14 | 323 | 11.3 | 16.1 | 0.00 | 0.00 | 0.00 | 34 | 1018.3 |
| 20260503201051 | 14 | 330 | 3.2 | 4.8 | 0.00 | 0.00 | 0.00 | 39 | 1018.4 |
| 20260503200547 | 15 | 322 | 6.4 | 11.3 | 0.00 | 0.00 | 0.00 | 41 | 1018.4 |
| 20260503200044 | 14 | 326 | 3.2 | 3.2 | 0.00 | 0.00 | 0.00 | 39 | 1018.6 |
| 20260503195541 | 13 | 322 | 4.8 | 12.9 | 0.00 | 0.00 | 0.00 | 40 | 1018.7 |
| 20260503195038 | 14 | 51 | 3.2 | 4.8 | 0.00 | 0.00 | 0.00 | 32 | 1018.7 |
| 20260503194535 | 14 | 257 | 9.7 | 16.1 | 0.00 | 0.00 | 0.00 | 34 | 1019.0 |
| 20260503194035 | 13 | 17 | 4.8 | 4.8 | 0.00 | 0.00 | 0.00 | 42 | 1018.9 |
| 20260503193532 | 14 | 299 | 6.4 | 9.7 | 0.00 | 0.00 | 0.00 | 35 | 1019.2 |
| 20260503193027 | 13 | 285 | 4.8 | 6.4 | 0.00 | 0.00 | 0.00 | 39 | 1019.3 |
| 20260503192523 | 13 | 307 | 9.7 | 9.7 | 0.00 | 0.00 | 0.00 | 42 | 1019.1 |
| 20260503192020 | 13 | 40 | 1.6 | 4.8 | 0.00 | 0.00 | 0.00 | 38 | 1018.9 |
| 20260503191516 | 13 | 296 | 6.4 | 14.5 | 0.00 | 0.00 | 0.00 | 40 | 1019.4 |
| 20260503191013 | 13 | 305 | 17.7 | 20.9 | 0.00 | 0.00 | 0.00 | 41 | 1019.2 |
| 20260503190510 | 13 | 82 | 4.8 | 6.4 | 0.00 | 0.00 | 0.00 | 35 | 1019.5 |
| 20260503190008 | 13 | 94 | 3.2 | 4.8 | 0.00 | 0.00 | 0.00 | 36 | 1019.5 |
| 20260503185504 | 13 | 290 | 0.0 | 9.7 | 0.00 | 0.00 | 0.00 | 40 | 1019.7 |
| 20260503185003 | 13 | 70 | 1.6 | 3.2 | 0.00 | 0.00 | 0.00 | 35 | 1019.5 |
| 20260503184500 | 13 | 327 | 4.8 | 17.7 | 0.00 | 0.00 | 0.00 | 39 | 1019.8 |
| 20260503183956 | 13 | 4 | 3.2 | 4.8 | 0.00 | 0.00 | 0.00 | 39 | 1019.9 |
| 20260503183453 | 13 | 38 | 4.8 | 6.4 | 0.00 | 0.00 | 0.00 | 44 | 1019.9 |
| 20260503182950 | 13 | 33 | 1.6 | 1.6 | 0.00 | 0.00 | 0.00 | 41 | 1019.9 |
| 20260503182449 | 13 | 94 | 3.2 | 4.8 | 0.00 | 0.00 | 0.00 | 38 | 1019.9 |
| 20260503181946 | 13 | 92 | 6.4 | 9.7 | 0.00 | 0.00 | 0.00 | 35 | 1020.3 |
| 20260503181443 | 13 | 35 | 3.2 | 9.7 | 0.00 | 0.00 | 0.00 | 39 | 1020.0 |
| 20260503180939 | 13 | 101 | 3.2 | 4.8 | 0.00 | 0.00 | 0.00 | 35 | 1020.1 |
| 20260503180437 | 11 | 323 | 11.3 | 11.3 | 0.00 | 0.00 | 0.00 | 47 | 1020.2 |
| 20260503175934 | 12 | 202 | 3.2 | 4.8 | 0.00 | 0.00 | 0.00 | 42 | 1020.2 |
| 20260503175432 | 12 | 298 | 9.7 | 11.3 | 0.00 | 0.00 | 0.00 | 39 | 1020.3 |
| 20260503174927 | 12 | 310 | 4.8 | 11.3 | 0.00 | 0.00 | 0.00 | 43 | 1020.4 |
| 20260503174426 | 11 | 258 | 8.0 | 11.3 | 0.00 | 0.00 | 0.00 | 38 | 1020.5 |
| 20260503173926 | 11 | 300 | 6.4 | 11.3 | 0.00 | 0.00 | 0.00 | 42 | 1020.6 |
| 20260503173422 | 12 | 277 | 6.4 | 11.3 | 0.00 | 0.00 | 0.00 | 44 | 1020.5 |
| 20260503172919 | 11 | 245 | 1.6 | 16.1 | 0.00 | 0.00 | 0.00 | 39 | 1020.6 |
| 20260503172417 | 12 | 81 | 3.2 | 4.8 | 0.00 | 0.00 | 0.00 | 35 | 1020.8 |
| 20260503171912 | 12 | 313 | 3.2 | 4.8 | 0.00 | 0.00 | 0.00 | 37 | 1020.9 |
| 20260503171410 | 11 | 334 | 1.6 | 3.2 | 0.00 | 0.00 | 0.00 | 39 | 1020.9 |
| 20260503170907 | 11 | 308 | 3.2 | 4.8 | 0.00 | 0.00 | 0.00 | 43 | 1021.1 |
| 20260503170403 | 10 | 313 | 11.3 | 16.1 | 0.00 | 0.00 | 0.00 | 41 | 1021.2 |
| 20260503150755 | 8 | 301 | 6.4 | 12.9 | 0.00 | 0.00 | 0.00 | 48 | 1022.0 |
| 20260503150251 | 7 | 298 | 11.3 | 16.1 | 0.00 | 0.00 | 0.00 | 46 | 1021.8 |
| 20260503140216 | 6 | 310 | 1.6 | 20.9 | 0.00 | 0.00 | 0.00 | 49 | 1022.2 |
| 20260503131145 | 3 | 276 | 3.2 | 6.4 | 0.00 | 0.00 | 0.00 | 78 | 1021.9 |
| 20260503130643 | 2 | 117 | 1.6 | 3.2 | 0.00 | 0.00 | 0.00 | 82 | 1021.9 |
| 20260503130140 | 2 | 198 | 0.0 | 1.6 | 0.00 | 0.00 | 0.00 | 84 | 1022.0 |
| 20260503120106 | -1 | 225 | 0.0 | 0.0 | 0.00 | 0.00 | 0.00 | 98 | 1021.2 |
| 20260503110533 | -3 | 225 | 0.0 | 0.0 | 0.00 | 0.00 | 0.00 | 98 | 1020.6 |